Location: Glendale
(37.4556°N, 88.6714°W)
Time: 23:02:50
(UTC+00:00)

STARLINK-60 - Pass Details

Date: 08 December 2019
Orbit: 412 x 419 km, 53.0° (Epoch: 22 January)

Event Time Altitude Azimuth Distance (km) Brightness Sun altitude
Rises 00:29:28 0° 246° (WSW) 2,379 8.3 -21.8°
Reaches altitude 10° 00:31:41 10° 256° (WSW) 1,514 7.0 -22.2°
Enters shadow 00:34:42 35° 318° (NW) 711 4.4 -22.8°
